CST,Max TemperatureF,Mean TemperatureF,Min TemperatureF,Max Dew PointF,MeanDew PointF,Min DewpointF,Max Humidity, Mean Humidity, Min Humidity, Max Sea Level PressureIn, Mean Sea Level PressureIn, Min Sea Level PressureIn, Max VisibilityMiles, Mean VisibilityMiles, Min VisibilityMiles, Max Wind SpeedMPH, Mean Wind SpeedMPH, Max Gust SpeedMPH,PrecipitationIn, CloudCover, Events, WindDirDegrees
2012-1-1,46,36,26,39,25,14,92,72,51,30.25,29.97,29.51,10,10,3,39,25,53,0.14,6,Rain-Snow,293
2012-1-2,26,21,16,13,8,4,67,56,44,30.51,30.37,30.25,10,10,9,36,19,45,T,5,Snow,314
2012-1-3,33,22,10,11,9,7,88,62,36,30.51,30.29,29.98,10,10,10,17,7,23,0.00,0,,200
2012-1-4,44,33,22,25,20,12,81,60,39,30.13,30.05,29.94,10,10,10,21,7,29,0.00,0,,270
2012-1-5,57,42,27,32,28,22,81,59,36,30.02,29.89,29.73,10,10,10,16,7,21,0.00,0,,239
2012-1-6,55,42,29,35,31,27,85,62,39,29.91,29.77,29.69,10,10,10,16,7,23,0.00,1,,283
2012-1-7,42,35,27,28,26,23,85,71,57,30.27,30.11,29.92,10,10,10,14,7,21,0.00,0,,288
2012-1-8,40,30,20,28,24,19,92,78,64,30.38,30.32,30.28,10,10,8,9,1,10,0.00,1,,227
2012-1-9,49,34,19,28,24,16,92,69,45,30.27,30.13,30.01,10,10,8,24,8,29,0.00,0,,244
2012-1-10,55,39,23,29,25,21,88,59,30,30.06,29.93,29.77,10,10,10,13,3,16,0.00,0,,210
2012-1-11,56,39,21,32,25,18,92,62,32,29.75,29.64,29.55,10,10,9,25,7,31,0.00,2,,301
2012-1-12,28,21,13,18,12,7,88,81,74,29.79,29.67,29.58,10,2,0,29,20,37,0.22,8,Fog-Snow,298
2012-1-13,20,13,5,10,9,3,84,76,67,30.12,29.98,29.78,10,9,3,21,12,29,T,7,Snow,283
2012-1-14,25,11,-4,15,6,-6,95,73,50,30.26,30.17,30.09,10,10,8,7,1,9,0.00,4,,114
2012-1-15,38,27,15,27,22,14,92,76,59,30.28,30.13,29.91,10,10,9,24,10,33,0.00,1,,151
2012-1-16,43,38,32,36,32,26,89,80,70,29.89,29.75,29.68,10,10,7,14,4,21,0.00,4,,153
2012-1-17,36,24,11,32,21,3,92,80,67,30.36,29.95,29.64,10,5,1,32,13,44,0.09,6,Rain-Snow,313
2012-1-18,27,15,2,16,8,-1,91,73,55,30.37,30.13,29.83,10,10,10,20,8,29,0.00,2,,203
2012-1-19,28,16,3,21,1,-10,69,60,50,30.25,30.07,29.84,10,8,1,21,9,28,0.01,5,Snow,328
2012-1-20,14,9,4,11,5,-7,88,72,55,30.27,30.12,30.00,10,5,0,20,11,25,0.09,8,Snow,63
2012-1-21,21,17,12,14,10,6,80,74,67,30.29,30.20,30.02,10,10,10,16,8,22,0.00,6,,71
2012-1-22,40,29,17,40,28,12,100,90,80,29.99,29.71,29.35,10,2,0,20,11,25,0.02,8,Fog,130
2012-1-23,44,36,28,43,30,21,100,85,69,30.02,29.62,29.30,10,8,2,29,18,37,0.07,8,Rain,253
2012-1-24,35,28,21,24,21,19,96,80,64,30.36,30.22,30.01,10,9,6,17,7,22,0.00,4,,287
2012-1-25,36,29,21,28,24,18,92,81,70,30.35,30.20,30.03,10,7,3,16,6,22,0.00,2,,116
2012-1-26,39,35,31,34,31,28,100,90,79,30.02,29.81,29.71,10,4,1,16,5,20,0.00,7,,259
2012-1-27,40,32,23,31,28,20,92,73,54,30.00,29.94,29.76,10,6,1,17,7,23,0.08,6,Snow,247
2012-1-28,37,31,24,28,21,17,78,65,52,30.16,30.08,29.92,10,10,10,23,14,32,0.00,2,,263
2012-1-29,34,27,20,23,19,17,88,71,54,30.25,30.16,30.01,10,10,10,25,11,33,T,3,,296
2012-1-30,60,44,28,36,29,20,75,56,36,30.13,29.89,29.78,10,10,10,23,11,33,0.00,3,,193
2012-1-31,59,48,36,49,42,34,85,76,66,29.99,29.83,29.76,10,10,10,20,12,26,0.00,2,,233